Time,TemperatureF,DewpointF,PressureIn,WindDirection,WindDirectionDegrees,WindSpeedMPH,WindSpeedGustMPH,Humidity,HourlyPrecipIn,Conditions,Clouds,dailyrainin,SolarRadiationWatts/m^2,SoftwareType,DateUTC
2013-07-28 00:22:00,76.0,76.0,-100.00,South,181,1.0,-999.0,100,0.00,,,-99.99,0.000000,,2013-07-28 04:22:00,
2013-07-28 00:53:00,75.0,75.0,-100.00,South,182,4.0,-999.0,100,0.00,,,-99.99,0.000000,,2013-07-28 04:53:00,
2013-07-28 01:22:00,75.0,75.0,-100.00,South,169,3.0,-999.0,100,0.00,,,-99.99,0.000000,,2013-07-28 05:22:00,
2013-07-28 01:53:00,75.0,75.0,-100.00,South,176,4.0,-999.0,100,0.00,,,-99.99,0.000000,,2013-07-28 05:53:00,
2013-07-28 02:22:00,75.0,75.0,-100.00,SSE,155,4.0,-999.0,100,0.00,,,-99.99,0.000000,,2013-07-28 06:22:00,
2013-07-28 02:53:00,75.0,75.0,-100.00,SE,144,4.0,-999.0,100,0.00,,,-99.99,0.000000,,2013-07-28 06:53:00,
2013-07-28 03:02:00,75.0,75.0,-100.00,SE,144,4.0,-999.0,100,0.00,,,-99.99,0.000000,,2013-07-28 07:02:00,
2013-07-28 03:12:00,75.0,75.0,-100.00,SE,143,5.0,-999.0,100,0.00,,,-99.99,0.000000,,2013-07-28 07:12:00,
2013-07-28 03:23:00,75.0,75.0,-100.00,SSE,164,4.0,-999.0,100,0.00,,,-99.99,0.000000,,2013-07-28 07:23:00,
2013-07-28 03:53:00,75.0,75.0,-100.00,South,184,4.0,-999.0,100,0.00,,,-99.99,0.000000,,2013-07-28 07:53:00,
2013-07-28 04:02:00,75.0,75.0,-100.00,South,184,4.0,-999.0,100,0.00,,,-99.99,0.000000,,2013-07-28 08:02:00,
2013-07-28 04:22:00,75.0,75.0,-100.00,South,185,3.0,-999.0,100,0.00,,,-99.99,0.000000,,2013-07-28 08:22:00,
2013-07-28 04:53:00,75.0,75.0,-100.00,South,174,3.0,-999.0,100,0.00,,,-99.99,0.000000,,2013-07-28 08:53:00,
2013-07-28 05:22:00,75.0,75.0,-100.00,South,185,3.0,-999.0,100,0.00,,,-99.99,0.000000,,2013-07-28 09:22:00,
2013-07-28 05:53:00,75.0,75.0,-100.00,SSW,197,2.0,-999.0,100,0.00,,,-99.99,0.000000,,2013-07-28 09:53:00,
2013-07-28 06:22:00,75.0,75.0,-100.00,South,189,2.0,-999.0,100,0.00,,,-99.99,0.000000,,2013-07-28 10:22:00,
2013-07-28 06:53:00,75.0,75.0,-100.00,South,181,2.0,-999.0,100,0.00,,,-99.99,0.000000,,2013-07-28 10:53:00,
2013-07-28 07:02:00,75.0,75.0,-100.00,South,181,2.0,-999.0,100,0.00,,,-99.99,0.000000,,2013-07-28 11:02:00,
2013-07-28 07:22:00,74.0,74.0,-100.00,SSW,200,2.0,-999.0,100,0.00,,,-99.99,0.000000,,2013-07-28 11:22:00,
2013-07-28 07:54:00,75.0,75.0,-100.00,West,270,1.0,-999.0,100,0.00,,,-99.99,0.000000,,2013-07-28 11:54:00,
2013-07-28 08:22:00,77.0,77.0,-100.00,SW,217,3.0,-999.0,100,0.00,,,-99.99,0.000000,,2013-07-28 12:22:00,
2013-07-28 08:53:00,78.0,78.0,-100.00,WSW,240,3.0,-999.0,100,0.00,,,-99.99,0.000000,,2013-07-28 12:53:00,
2013-07-28 09:02:00,78.0,78.0,-100.00,WSW,240,3.0,-999.0,100,0.00,,,-99.99,0.000000,,2013-07-28 13:02:00,
2013-07-28 09:22:00,79.0,78.0,-100.00,West,269,5.0,-999.0,96,0.00,,,-99.99,0.000000,,2013-07-28 13:22:00,
2013-07-28 09:32:00,80.0,77.0,-100.00,West,275,4.0,-999.0,92,0.00,,,-99.99,0.000000,,2013-07-28 13:32:00,
2013-07-28 10:23:00,82.0,77.0,-100.00,NNW,328,4.0,-999.0,84,0.00,,,-99.99,0.000000,,2013-07-28 14:23:00,
2013-07-28 10:53:00,84.0,77.0,-100.00,North,351,3.0,-999.0,80,0.00,,,-99.99,0.000000,,2013-07-28 14:53:00,
2013-07-28 11:22:00,85.0,76.0,-100.00,NNW,347,3.0,-999.0,76,0.00,,,-99.99,0.000000,,2013-07-28 15:22:00,
2013-07-28 11:32:00,85.0,76.0,-100.00,North,350,2.0,-999.0,75,0.00,,,-99.99,0.000000,,2013-07-28 15:32:00,
2013-07-28 11:53:00,85.0,76.0,-100.00,SW,217,3.0,-999.0,73,0.00,,,-99.99,0.000000,,2013-07-28 15:53:00,
2013-07-28 12:02:00,85.0,76.0,-100.00,SW,217,3.0,-999.0,73,0.00,,,-99.99,0.000000,,2013-07-28 16:02:00,
2013-07-28 12:22:00,87.0,76.0,-100.00,NNW,332,2.0,-999.0,70,0.00,,,-99.99,0.000000,,2013-07-28 16:22:00,
2013-07-28 12:33:00,87.0,76.0,-100.00,SW,220,4.0,-999.0,69,0.00,,,-99.99,0.000000,,2013-07-28 16:33:00,
2013-07-28 12:52:00,87.0,76.0,-100.00,WNW,283,4.0,-999.0,69,0.00,,,-99.99,0.000000,,2013-07-28 16:52:00,
2013-07-28 13:23:00,88.0,77.0,-100.00,NNW,347,3.0,-999.0,68,0.00,,,-99.99,0.000000,,2013-07-28 17:23:00,
2013-07-28 13:53:00,88.0,76.0,-100.00,WSW,251,2.0,-999.0,68,0.00,,,-99.99,0.000000,,2013-07-28 17:53:00,
2013-07-28 14:22:00,84.0,74.0,-100.00,South,181,13.0,-999.0,71,0.00,,,-99.99,0.000000,,2013-07-28 18:22:00,
2013-07-28 15:22:00,73.0,72.0,-100.00,NE,51,7.0,-999.0,96,0.00,,,-99.99,0.000000,,2013-07-28 19:22:00,
2013-07-28 15:53:00,74.0,72.0,-100.00,NE,36,7.0,-999.0,95,0.00,,,-99.99,0.000000,,2013-07-28 19:53:00,
2013-07-28 16:23:00,76.0,73.0,-100.00,SE,130,2.0,-999.0,89,0.00,,,-99.99,0.000000,,2013-07-28 20:23:00,
2013-07-28 16:53:00,80.0,75.0,-100.00,SE,143,5.0,-999.0,84,0.00,,,-99.99,0.000000,,2013-07-28 20:53:00,
2013-07-28 17:13:00,82.0,76.0,-100.00,SE,136,7.0,-999.0,84,0.00,,,-99.99,0.000000,,2013-07-28 21:13:00,
2013-07-28 17:22:00,82.0,76.0,-100.00,SE,145,8.0,-999.0,81,0.00,,,-99.99,0.000000,,2013-07-28 21:22:00,
2013-07-28 17:52:00,81.0,75.0,-100.00,SE,126,7.0,-999.0,79,0.00,,,-99.99,0.000000,,2013-07-28 21:52:00,
2013-07-28 18:22:00,82.0,73.0,-100.00,SE,128,5.0,-999.0,76,0.00,,,-99.99,0.000000,,2013-07-28 22:22:00,
2013-07-28 18:52:00,83.0,74.0,-100.00,ESE,112,4.0,-999.0,75,0.00,,,-99.99,0.000000,,2013-07-28 22:52:00,
2013-07-28 19:22:00,82.0,74.0,-100.00,SE,132,4.0,-999.0,78,0.00,,,-99.99,0.000000,,2013-07-28 23:22:00,
2013-07-28 19:53:00,80.0,75.0,-100.00,South,177,3.0,-999.0,84,0.00,,,-99.99,0.000000,,2013-07-28 23:53:00,
2013-07-28 20:22:00,79.0,75.0,-100.00,South,178,4.0,-999.0,87,0.00,,,-99.99,0.000000,,2013-07-29 00:22:00,
2013-07-28 20:52:00,78.0,75.0,-100.00,West,264,5.0,-999.0,88,0.00,,,-99.99,0.000000,,2013-07-29 00:52:00,
2013-07-28 21:02:00,78.0,75.0,-100.00,West,264,5.0,-999.0,88,0.00,,,-99.99,0.000000,,2013-07-29 01:02:00,
2013-07-28 21:29:00,79.0,74.0,-100.00,West,270,4.0,-999.0,87,0.00,,,-99.99,0.000000,,2013-07-29 01:29:00,
2013-07-28 22:01:00,77.0,75.0,-100.00,South,177,4.0,-999.0,90,0.00,,,-99.99,0.000000,,2013-07-29 02:01:00,
2013-07-28 22:26:00,77.0,74.0,-100.00,SSE,168,3.0,-999.0,93,0.00,,,-99.99,0.000000,,2013-07-29 02:26:00,
2013-07-28 22:36:00,76.0,74.0,-100.00,South,177,4.0,-999.0,92,0.00,,,-99.99,0.000000,,2013-07-29 02:36:00,
2013-07-28 22:59:00,75.0,73.0,-100.00,South,187,4.0,-999.0,93,0.00,,,-99.99,0.000000,,2013-07-29 02:59:00,
2013-07-28 23:24:00,74.0,73.0,-100.00,SSE,167,4.0,-999.0,96,0.00,,,-99.99,0.000000,,2013-07-29 03:24:00,
2013-07-28 23:58:00,74.0,73.0,-100.00,NE,45,2.0,-999.0,95,0.00,,,-99.99,0.000000,,2013-07-29 03:58:00,